Weather History for PAJN - December, 2013

Change the Weather History Date:

Sunday, December 22, 2013

  Actual Average Record
Temperature  
Mean Temperature 31 °F 29 °F  
Max Temperature 36 °F 34 °F 48 °F (1999)
Min Temperature 25 °F 25 °F -3 °F (1972)
Degree Days  
Heating Degree Days 34 36  
Month to date heating degree days 878 764  
Since 1 July heating degree days 3351 3395  
Moisture  
Dew Point 31 °F    
Average Humidity 95    
Maximum Humidity 100    
Minimum Humidity 89    
Precipitation  
Precipitation 1.28 in 0.18 in 1.28 in (2013)
Month to date precipitation 5.63 4.29  
Year to date precipitation 70.85 60.72  
Snow  
Snow 2.70 in 0.40 in 4.70 in (1979)
Month to date snowfall 27.7 10.7  
Since 1 July snowfall 46.9 24.6  
Snow Depth 7.00 in    
Sea Level Pressure  
Sea Level Pressure 29.55 in    
Wind  
Wind Speed 10 mph (ESE)    
Max Wind Speed 29 mph    
Max Gust Speed 53 mph    
Visibility 5 miles    
Events Rain , Snow    
T = Trace of Precipitation, MM = Missing Value Source: NWS Daily Summary

Daily Weather History Graph

Daily Weather History Graph

Search for Another Location

Airport or City:

Trip Planner

Search our weather history database for the weather conditions in past years. The results will help you decide how hot, cold, wet, or windy it might be!

Date:

Astronomy

Dec. 22, 2013 Rise Set
Actual Time 8:46 AM AKST 3:08 PM AKST
Civil Twilight 7:53 AM AKST 4:00 PM AKST
Nautical Twilight 7:00 AM AKST 4:54 PM AKST
Astronomical Twilight 6:11 AM AKST 5:43 PM AKST
Moon 9:39 PM AKST (12/22) 10:40 AM AKST (12/22)
Length of Visible Light 8h 07m
Length of Day
6h 21m
Waning Gibbous, 75% of the Moon is Illuminated
Dec 22
Waning Gibbous
Dec 25
Last Quarter
Jan 1
New
Jan 7
First Quarter
Jan 15
Full

Hourly Weather History & Observations

Time (AKST) Temp. Windchill Dew Point Humidity Pressure Visibility Wind Dir Wind Speed Gust Speed Precip Events Conditions
12:53 AM 26.1 °F 21.9 °F 24.1 °F 92% 29.79 in 2.5 mi West 3.5 mph - 0.04 in Snow Light Snow
1:05 AM 25.0 °F - 24.1 °F 96% 29.79 in 3.0 mi Calm Calm - 0.00 in Snow Light Snow
1:36 AM 26.1 °F - 24.1 °F 92% 29.76 in 2.0 mi Calm Calm - 0.02 in Snow Light Snow
1:53 AM 26.1 °F - 25.0 °F 96% 29.75 in 1.8 mi Calm Calm - 0.04 in Snow Light Snow
2:35 AM 26.1 °F 21.9 °F 25.0 °F 96% 29.73 in 2.5 mi NW 3.5 mph - 0.03 in Snow Light Snow
3:27 AM 27.0 °F - 25.0 °F 92% 29.71 in 1.2 mi Calm Calm - 0.07 in Snow Light Snow
3:53 AM 27.0 °F 21.6 °F 25.0 °F 92% 29.69 in 0.8 mi ENE 4.6 mph - 0.14 in Snow Light Snow
4:29 AM 32.0 °F 22.5 °F 30.9 °F 96% 29.65 in 2.5 mi East 12.7 mph - 0.11 in Snow Light Snow
4:53 AM 33.1 °F 21.2 °F 30.9 °F 92% 29.63 in 3.0 mi East 20.7 mph 27.6 mph 0.16 in Rain Light Rain
5:53 AM 33.1 °F 23.4 °F 32.0 °F 96% 29.60 in 1.8 mi East 13.8 mph - 0.14 in Rain Rain
6:53 AM 33.1 °F 24.4 °F 32.0 °F 96% 29.58 in 1.8 mi East 11.5 mph 42.6 mph 0.15 in Rain Rain
6:59 AM 33.1 °F 23.4 °F 32.0 °F 96% 29.57 in 3.0 mi East 13.8 mph 26.5 mph 0.02 in Rain Rain
7:11 AM 33.1 °F 24.9 °F 32.0 °F 96% 29.57 in 4.0 mi East 10.4 mph - 0.03 in Rain Rain
7:53 AM 33.1 °F 24.4 °F 32.0 °F 96% 29.54 in 4.0 mi ENE 11.5 mph - 0.10 in Rain Rain
8:36 AM 32.0 °F 27.5 °F 30.9 °F 96% 29.54 in 4.0 mi SSE 4.6 mph - 0.04 in Rain Rain
8:53 AM 32.0 °F 27.5 °F 30.9 °F 96% 29.53 in 3.0 mi SE 4.6 mph - 0.05 in Rain Rain
9:41 AM 32.0 °F 26.4 °F 30.9 °F 96% 29.53 in 4.0 mi SSW 5.8 mph - 0.02 in Rain Rain
9:48 AM 32.0 °F 28.7 °F 30.2 °F 93% 29.53 in 4.0 mi SSW 3.5 mph - 0.03 in Rain Rain
9:53 AM 32.0 °F 28.7 °F 30.9 °F 96% 29.52 in 4.0 mi South 3.5 mph - 0.04 in Rain Rain
10:00 AM 32.0 °F - 30.9 °F 96% 29.52 in 4.0 mi Calm Calm - 0.01 in Rain Rain
10:14 AM 32.0 °F 28.7 °F 30.0 °F 92% 29.51 in 3.0 mi East 3.5 mph - 0.03 in Rain Rain
10:53 AM 33.1 °F 25.5 °F 32.0 °F 96% 29.50 in 3.0 mi ESE 9.2 mph - 0.05 in Rain Light Rain
11:00 AM 34.0 °F 28.0 °F 33.1 °F 96% 29.50 in 2.0 mi East 6.9 mph - 0.01 in Rain Light Rain
11:22 AM 33.1 °F 28.7 °F 32.0 °F 96% 29.49 in 3.0 mi Variable 4.6 mph - 0.02 in Rain Light Rain
11:29 AM 33.1 °F 28.7 °F 32.0 °F 96% 29.49 in 2.5 mi SSE 4.6 mph - 0.02 in Rain Light Rain
11:42 AM 32.0 °F 28.7 °F 30.9 °F 96% 29.49 in 4.0 mi SSW 3.5 mph - 0.03 in Rain Light Rain
11:53 AM 32.0 °F 26.4 °F 30.9 °F 96% 29.49 in 4.0 mi SSW 5.8 mph - 0.03 in Rain Light Rain
12:10 PM 32.0 °F 28.7 °F 32.0 °F 100% 29.49 in 2.5 mi Variable 3.5 mph - 0.03 in Rain Light Rain
12:17 PM 33.1 °F - 32.0 °F 96% 29.49 in 3.0 mi Calm Calm - 0.04 in Rain Light Rain
12:42 PM 34.0 °F 26.0 °F 32.0 °F 92% 29.48 in 4.0 mi East 10.4 mph - 0.06 in Rain Light Rain
12:53 PM 35.1 °F 27.4 °F 33.1 °F 92% 29.48 in 5.0 mi ENE 10.4 mph - 0.06 in Rain Light Rain
1:46 PM 34.0 °F 27.2 °F 33.1 °F 96% 29.48 in 4.0 mi SE 8.1 mph - 0.02 in Rain Light Rain
1:53 PM 34.0 °F 25.5 °F 33.1 °F 96% 29.48 in 4.0 mi East 11.5 mph - 0.03 in Rain Light Rain
2:53 PM 35.1 °F 25.2 °F 32.0 °F 89% 29.47 in 10.0 mi East 16.1 mph - 0.03 in Rain Light Rain
3:53 PM 36.0 °F 26.7 °F 33.1 °F 89% 29.47 in 8.0 mi East 15.0 mph - 0.01 in Rain Light Rain
4:53 PM 35.1 °F 26.9 °F 33.1 °F 92% 29.47 in 10.0 mi East 11.5 mph - 0.03 in Rain Light Rain
5:53 PM 34.0 °F 25.5 °F 33.1 °F 96% 29.47 in 10.0 mi ESE 11.5 mph - 0.00 in   Overcast
6:04 PM 34.0 °F 25.5 °F 33.1 °F 96% 29.47 in 10.0 mi East 11.5 mph - N/A   Overcast
6:53 PM 34.0 °F 26.0 °F 32.0 °F 92% 29.48 in 10.0 mi ESE 10.4 mph - N/A   Overcast
7:30 PM 33.1 °F 23.4 °F 32.0 °F 96% 29.48 in 10.0 mi East 13.8 mph - N/A   Overcast
7:53 PM 34.0 °F 26.6 °F 32.0 °F 92% 29.48 in 10.0 mi East 9.2 mph - 0.00 in Rain Light Rain
8:53 PM 34.0 °F 25.0 °F 32.0 °F 92% 29.48 in 10.0 mi East 12.7 mph - 0.00 in Rain Light Rain
9:53 PM 34.0 °F 25.0 °F 32.0 °F 92% 29.51 in 8.0 mi East 12.7 mph - 0.02 in Rain Light Rain
10:53 PM 34.0 °F 23.8 °F 32.0 °F 92% 29.52 in 9.0 mi East 16.1 mph - 0.06 in Rain Light Rain
11:09 PM 34.0 °F 25.5 °F 33.1 °F 96% 29.53 in 9.0 mi East 11.5 mph - 0.02 in Rain Light Rain
11:53 PM 34.0 °F 26.6 °F 33.1 °F 96% 29.55 in 10.0 mi East 9.2 mph - 0.04 in Rain Light Rain